DateTimeUTC,F1_A11,F1_S11,BsB_S11,BsG_S11,BsR_S11,BbsB_S11,BbsG_S11,BbsR_S11,BaB_A11,BaG_A11,BaR_A11,Tu_S11,T_S11,Uu_S11,U_S11,P_S11,T1_A11
2021-11-08T17:00:00Z,00000200,21000000,,,,,,,0000.17,0000.38,0000.13,18.7,25.6,,00.0,0641.9,31.0
2021-11-08T17:01:00Z,00000200,21000000,,,,,,,-000.32,-000.31,0000.16,18.7,25.5,,00.0,0641.9,31.0
2021-11-08T17:02:00Z,00000200,21000000,,,,,,,0000.62,0000.59,0000.08,18.8,25.6,,00.0,0641.9,31.0
2021-11-08T17:03:00Z,00000200,61000000,,,,,,,-000.02,-000.33,-000.25,18.8,25.6,,00.0,0641.9,31.0
2021-11-08T17:04:00Z,00000200,41000000,-000.34,0000.00,0000.16,0000.18,0000.10,0000.03,-000.05,0000.03,0000.20,19.1,25.5,,00.0,0642.8,31.0
2021-11-08T17:05:00Z,00000200,01000000,-000.43,0000.13,0000.16,-000.12,-000.02,0000.18,-000.03,0000.05,0000.23,19.2,25.5,,00.0,0642.9,31.0
2021-11-08T17:06:00Z,00000200,01000000,0000.42,0000.26,0000.39,0000.41,0000.27,0000.21,0000.13,-000.17,-000.58,19.2,25.5,,00.0,0642.8,31.0
2021-11-08T17:07:00Z,00000200,01000000,0000.12,0000.04,0000.45,0000.11,-000.30,0000.19,-000.01,0000.15,0000.52,19.2,25.5,,00.0,0642.8,31.0
2021-11-08T17:08:00Z,00000200,01000000,0000.06,0000.28,0000.23,0000.09,-000.22,-000.01,0000.15,0000.14,-000.10,19.0,25.5,,00.0,0642.8,30.9
2021-11-08T17:09:00Z,00000200,01000000,0000.38,0000.05,0000.04,-000.29,-000.22,0000.05,-000.23,-000.14,-000.06,18.9,25.4,,00.0,0642.8,30.9
2021-11-08T17:10:00Z,00000200,01000000,0000.58,0000.15,-000.14,0000.66,0000.22,-000.25,-000.05,0000.04,-000.04,18.8,25.3,,00.0,0642.8,30.9
2021-11-08T17:11:00Z,00000200,01000000,0000.01,0000.05,0000.06,-000.24,0000.13,-000.08,-000.17,-000.48,-000.29,18.8,25.3,,00.0,0642.8,30.9
2021-11-08T17:12:00Z,00000200,01000000,0000.90,0000.24,-000.08,-000.02,-000.05,-000.30,0000.45,0000.41,0000.27,18.8,25.3,,00.0,0642.8,30.9
2021-11-08T17:13:00Z,00000200,01000000,0000.33,-000.02,0000.17,-000.71,0000.14,-000.09,-000.16,0000.23,0000.09,18.9,25.3,,00.0,0642.8,30.9
2021-11-08T17:14:00Z,00000200,01000000,0000.42,0000.18,0000.28,0000.05,0000.02,-000.39,0000.22,0000.12,0000.42,18.9,25.3,,00.0,0642.8,30.9
2021-11-08T17:15:00Z,00000200,01000000,0000.40,-000.01,0000.19,-000.23,0000.41,-000.11,-000.31,0000.01,-000.16,19.0,25.3,,00.0,0642.8,30.9
2021-11-08T17:16:00Z,00000200,01000000,0000.74,0000.10,-000.00,0000.31,0000.64,-000.06,0000.01,-000.25,-000.44,19.0,25.4,,00.0,0642.8,31.0
2021-11-08T17:17:00Z,00000200,01000000,0000.28,-000.01,-000.06,0000.30,0000.04,-000.19,0000.47,0000.24,0000.58,19.1,25.4,,00.0,0642.8,31.0
2021-11-08T17:18:00Z,00000200,01000000,-000.31,0000.35,0000.20,0000.04,0000.01,0000.15,-000.28,-000.17,-000.37,19.1,25.4,,00.0,0642.9,31.0
2021-11-08T17:19:00Z,00000200,01000000,-000.78,-000.20,0000.06,0000.93,0000.01,-000.23,-000.00,0000.26,0000.09,19.2,25.4,,00.0,0642.8,31.0
2021-11-08T17:20:00Z,00000200,01000000,0000.25,0000.07,0000.12,0000.04,-000.03,-000.15,0000.17,-000.35,-000.03,19.2,25.5,,00.0,0642.8,31.0
2021-11-08T17:21:00Z,00000200,01000000,-000.02,-000.05,-000.10,0000.14,0000.00,-000.08,-000.20,0000.17,0000.11,19.3,25.5,,00.0,0642.9,31.0
2021-11-08T17:22:00Z,00000200,01000000,0000.70,0000.28,-000.01,0000.03,0000.13,-000.41,-000.22,-000.37,-000.45,19.3,25.5,,00.0,0642.9,31.0
2021-11-08T17:23:00Z,00000200,01000000,-000.04,0000.09,0000.17,-000.74,0000.11,-000.25,-000.04,0000.01,0000.15,19.3,25.5,,00.0,0642.8,31.0
2021-11-08T17:24:00Z,00000200,01000000,0000.56,0000.06,0000.15,-000.41,-000.02,-000.04,-000.24,0000.14,-000.01,19.2,25.5,,00.0,0642.8,31.0
2021-11-08T17:25:00Z,00000200,01000000,0000.45,0000.07,0000.14,0000.12,0000.26,-000.09,0000.31,0000.44,0000.07,19.1,25.4,,00.0,0642.8,31.0
2021-11-08T17:26:00Z,00000200,01000000,0000.38,0000.23,0000.11,0000.04,0000.34,0000.13,0000.11,-000.34,-000.28,19.1,25.4,,00.0,0642.8,30.9
2021-11-08T17:27:00Z,00000200,01000000,0000.74,0000.55,0000.03,-000.69,0000.53,0000.09,0000.03,-000.37,0000.50,19.1,25.4,,00.0,0642.8,31.0
2021-11-08T17:28:00Z,00000200,01000000,0000.35,0000.27,0000.33,-000.12,-000.10,0000.13,0000.26,0000.74,0000.15,19.1,25.4,,00.0,0642.9,31.0
2021-11-08T17:29:00Z,00000200,01000000,-000.43,0000.16,0000.08,0000.26,0000.19,0000.06,-000.02,-000.28,-000.08,19.2,25.5,,00.0,0642.9,31.0
2021-11-08T17:30:00Z,00000200,01000000,0000.43,-000.28,-000.15,0000.09,0000.21,-000.18,0000.05,-000.05,-000.06,19.3,25.5,,00.0,0642.8,31.0
2021-11-08T17:31:00Z,00000200,01000000,0000.24,0000.27,-000.12,0000.41,-000.01,0000.03,-000.32,-000.18,-000.21,19.3,25.5,,00.0,0642.9,31.0
2021-11-08T17:32:00Z,00000200,01000000,0000.58,0000.08,0000.04,0000.41,0000.05,-000.21,0000.52,-000.02,0000.38,19.3,25.5,,00.0,0642.9,31.0
2021-11-08T17:33:00Z,00000200,01000000,0000.37,-000.19,0000.04,-000.04,0000.16,-000.20,-000.27,0000.40,-000.20,19.4,25.5,,00.0,0642.9,31.0
2021-11-08T17:34:00Z,00000200,01000000,0000.52,0000.49,0000.09,-000.10,0000.23,-000.05,-000.02,0000.03,0000.22,19.4,25.6,,00.0,0642.9,31.0
2021-11-08T17:35:00Z,00000200,01000000,0000.01,-000.11,-000.03,-000.40,-000.05,-000.33,0000.15,0000.34,-000.09,19.4,25.6,,00.0,0642.9,31.0
2021-11-08T17:36:00Z,00000200,01000000,0000.19,0000.40,-000.02,-000.25,0000.26,0000.10,-000.26,-000.43,-000.10,19.4,25.5,,00.0,0642.9,31.0
2021-11-08T17:37:00Z,00000200,01000000,0000.07,0000.20,0000.02,0000.16,0000.12,-000.25,-000.16,-000.04,-000.07,19.3,25.5,,00.0,0642.8,31.0
2021-11-08T17:38:00Z,00000200,01000000,-000.29,0000.00,0000.22,0000.31,0000.15,-000.02,0000.26,0000.08,-000.07,19.1,25.5,,00.0,0642.8,30.9
2021-11-08T17:39:00Z,00000200,01000000,0000.80,0000.14,-000.29,-000.25,0000.09,-000.02,-000.18,-000.31,-000.08,19.0,25.4,,00.0,0642.8,30.9
2021-11-08T17:40:00Z,00000200,01000000,0000.27,0000.08,-000.23,0000.31,-000.07,-000.17,-000.19,0000.13,-000.24,18.9,25.4,,00.0,0642.8,30.9
2021-11-08T17:41:00Z,00000200,01000000,-000.10,0000.58,-000.21,0000.26,-000.17,-000.19,-000.04,-000.02,0000.15,18.9,25.3,,00.0,0642.9,30.9
2021-11-08T17:42:00Z,00000200,01000000,0000.25,0000.46,0000.18,0000.03,-000.15,0000.43,0000.57,0000.08,0000.07,18.9,25.3,,00.0,0642.8,30.9
2021-11-08T17:43:00Z,00000200,01000000,0000.40,0000.58,-000.16,-000.00,-000.06,0000.11,0000.09,0000.07,0000.18,18.9,25.3,,00.0,0642.9,30.9
2021-11-08T17:44:00Z,00000200,01000000,0000.15,-000.01,-000.01,-000.16,0000.11,-000.07,0000.03,-000.04,-000.28,19.0,25.3,,00.0,0642.8,30.9
2021-11-08T17:45:00Z,00000200,01000000,0000.00,0000.30,-000.08,-000.31,0000.12,-000.02,-000.42,-000.09,0000.31,19.0,25.4,,00.0,0642.9,31.0
2021-11-08T17:46:00Z,00000200,01000000,-000.13,0000.15,0000.12,-000.33,-000.10,0000.12,0000.03,0000.23,0000.15,19.1,25.4,,00.0,0642.8,31.0
2021-11-08T17:47:00Z,00000200,01000000,0000.95,0000.40,-000.11,0000.37,0000.40,-000.04,0000.17,-000.02,-000.14,19.1,25.4,,00.0,0642.8,31.0
2021-11-08T17:48:00Z,00000200,01000000,0000.05,0000.23,0000.17,0000.14,-000.00,0000.01,0000.16,-000.05,-000.20,19.2,25.4,,00.0,0642.9,31.0
2021-11-08T17:49:00Z,00000200,01000000,0000.41,0000.20,-000.01,-000.31,-000.14,-000.00,-000.47,-000.27,0000.05,19.2,25.4,,00.0,0642.9,31.0
2021-11-08T17:50:00Z,00000200,01000000,0000.39,0000.03,0000.21,-000.27,-000.07,-000.03,0000.16,0000.25,-000.07,19.2,25.5,,00.0,0642.9,31.0
2021-11-08T17:51:00Z,00000200,01000000,-000.69,-000.10,0000.03,0000.19,0000.00,-000.07,-000.09,-000.26,0000.11,19.1,25.4,,00.0,0642.9,31.0
2021-11-08T17:52:00Z,00000200,01000000,0000.15,0000.12,-000.23,0000.09,0000.09,-000.27,0000.38,0000.00,-000.27,19.0,25.4,,00.0,0642.9,30.9
2021-11-08T17:53:00Z,00000200,01000000,0000.22,-000.13,-000.17,0000.38,-000.18,-000.34,-000.19,-000.12,-000.03,18.9,25.3,,00.0,0642.9,30.9
2021-11-08T17:54:00Z,00000200,01000000,-000.61,0000.38,0000.19,-000.02,0000.21,0000.08,-000.21,-000.06,-000.05,18.8,25.3,,00.0,0642.9,30.9
2021-11-08T17:55:00Z,00000200,01000000,-000.07,0000.10,0000.03,-000.16,0000.32,-000.04,0000.07,0000.35,-000.00,18.7,25.2,,00.0,0642.9,30.9
2021-11-08T17:56:00Z,00000200,01000000,0000.19,0000.21,-000.12,-000.40,0000.12,0000.01,0000.38,-000.23,0000.04,18.7,25.2,,00.0,0642.9,30.9
2021-11-08T17:57:00Z,00000200,41000000,,,,,,,0000.02,0000.29,0000.60,18.7,25.2,,00.0,0643.0,30.9
2021-11-08T17:58:00Z,00000200,61000000,,,,,,,0000.23,0000.24,-000.32,18.5,25.3,,00.0,0642.0,30.9
2021-11-08T17:59:00Z,00000200,21000000,,,,,,,-000.28,-000.36,0000.03,18.5,25.4,,00.0,0642.0,30.9
